SCP
0 0 0 0 0 0 0 0 0 0 0 0 0 0 0 0 0 0 0 0 0 0 0 0 0 0 0 0 0 0 0 0 0 0 0 0 0 0 0 0 0 0 0
0 0 0 0 0 0 0 0 0 0 0 0 0 0 0 0 0 0 0 0 0 0 0 0 0 0 0 0 0 0 0 0 0 0 0 0 0 0 0 0 0 0 0
0 0 0 0 0 0 0 0 0 0 0 0 0 0 0 0 0 0 0 0 0 0 0 0 0 0 0 0 0 0 0 0 0 0 0 0 0 0 0 0 0 0 0
0 0 0 0 0 0 0 0 0 0 0 0 0 0 0 0 0 0 0 0 0 0 0 0 0 0 0 0 0 0 0 0 0 0 0 0 0 0 0 0 0 0 0
0 0 0 0 0 0 0 0 0 0 0 0 0 0 0 0 0 0 0 0 0 0 0 0 0 0 0 0 0 0 0 0 0 0 0 0 0 0 0 0 0 0 0
0 0 0 0 0 0 0 0 0 0 0 0 0 0 0 0 0 0 0 0 0 0 0 0 0 0 0 0 0 0 0 0 0 0 0 0 0 0 0 0 0 0 0
0 0 0 0 0 0 0 0 0 0 0 0 0 0 0 0 0 0 0 0 0 0 0 0 0 0 0 0 0 0 0 0 0 0 0 0 0 0 0 0 0 0 0
0 0 0 0 0 0 0 0 0 0 0 0 0 0 0 0 0 0 0 0 0 0 0 0 0 0 0 0 0 0 0 0 0 0 0 0 0 0 0 0 0 0 0
0 0 0 0 0 0 0 0 0 0 0 0 0 0 0 0 0 0 0 0 0 0 0 0 0 0 0 0 0 0 0 0 0 0 0 0 0 0 0 0 0 0 0
0 0 0 0 0 0 0 0 0 0 0 0 0 0 0 0 0 0 0 0 0 0 0 0 0 0 0 0 0 0 0 0 0 0 0 0 0 0 0 0 0 0 0
0 0 0 0 0 0 0 0 0 0 0 0 0 0 0 0 0 0 0 0 0 0 0 0 0 0 0 0 0 0 0 0 0 0 0 0 0 0 0 0 0 0 0
0 0 0 0 0 0 0 0 0 0 0 0 0 0 0 0 0 0 0 0 0 0 0 0 0 0 0 0 0 0 0 0 0 0 0 0 0 0 0 0 0 0 0
0 0 0 0 0 0 0 0 0 0 0 0 0 0 0 0 0 0 0 0 0 0 0 0 0 0 0 0 0 0 0 0 0 0 0 0 0 0 0 0 0 0 0
0 0 0 0 0 0 0 0 0 0 0 0 0 0 0 0 0 0 0 0 0 0 0 0 0 0 0 0 0 0 0 0 0 0 0 0 0 0 0 0 0 0 0
0 0 0 0 0 0 0 0 0 0 0 0 0 0 0 0 0 0 0 0 0 0 0 0 0 0 0 0 0 0 0 0 0 0 0 0 0 0 0 0 0 0 0
0 0 0 0 0 0 0 0 0 0 0 0 0 0 0 0 0 0 0 0 0 0 0 0 0 0 0 0 0 0 0 0 0 0 0 0 0 0 0 0 0 0 0
0 0 0 0 -0 0 0 0 0 0 0 0 0 0 0 0 0 0 0 0 0 0 0 0 0 0 0 0 0 0 0 0 0 0 0 0 0 0 0 0 0 0 0
0 0 0 0 0 0 0 0 0 0 0 0 0 0 0 0 0 0 0 0 0 0 0 0 0 0 0 0 0 0 0 0 0 0 0 0 0 0 0 0 0 0 0
0 0 0 0 0 0 0 0 0 0 0 0 0 0 0 0 0 0 0 0 0 0 0 0 0 0 0 0 0 0 0 0 0 0 0 0 0 0 0 0 0 0 0
0 0 0 0 0 0 0 0 0 0 0 0 0 0 0 0 0 0 0 0 0 0 0 0 0 0 0 0 0 0 0 0 0 0 0 0 0 0 0 0 0 0 0
0 0 0 0 0 0 0 0 0 0 0 0 0 0 0 0 0 0 0 0 0 0 0 0 0 0 0 0 0 0 0 0 0 0 0 0 0 0 0 0 0 0 0
0 0 0 0 0 0 0 0 0 0 0 0 0 0 0 0 0 0 0 0 0 0 0 0 0 0 0 0 0 0 0 0 0 0 0 0 0 0 0 0 0 0 0
0 0 0 0 0 0 0 0 0 0 0 0 0 0 0 0 0 0 0 0 0 0 0 0 0 0 0 0 0 0 0 0 0 0 0 0 0 0 0 0 0 0 0
0 0 0 0 0 0 0 0 0 0 0 0 0 0 0 0 0 0 0 0 0 0 0 0 0 0 0 0 0 0 0 0 0 0 0 0 0 0 0 0 0 0 0
0 0 0 0 0 0 0 0 0 0 0 0 0 0 0 0 0 0 0 0 0 0 0 0 0 0 0 0 0 0 0 0 0 0 0 0 0 0 0 0 0 0 0
0 0 0 0 0 0 0 0 0 0 0 0 0 0 0 0 0 0 0 0 0 0 0 0 0 0 0 0 0 0 0 0 0 0 0 0 0 0 0 0 0 0 0
Wind_Speed
2 2 2 2 2 2 2 2 2 3 3 3 2 2 2 2 2 2 2 3 3 3 2 1 0 1 1 1 1 3 5 5 5 5 5 5 5 5 5 6 6 6 6
2 2 2 2 2 2 2 2 2 2 2 1 2 2 2 1 2 2 2 3 4 4 3 2 1 1 0 1 1 2 4 5 5 5 5 5 5 4 5 5 5 5 6
3 2 1 2 2 2 2 2 2 1 2 2 2 2 1 1 2 2 2 2 2 4 4 3 3 2 2 1 0 1 2 4 5 5 5 5 5 4 4 4 5 5 5
3 2 2 2 2 2 1 1 1 1 1 1 1 1 1 1 1 1 2 2 2 2 3 4 4 3 3 2 1 1 1 2 4 5 5 6 5 5 5 5 5 5 6
3 2 2 2 2 2 1 1 2 1 1 2 2 1 1 1 1 1 2 2 2 2 2 4 5 5 4 3 2 2 1 1 3 4 5 6 6 6 6 6 6 6 6
2 2 2 2 2 1 2 2 2 2 1 1 1 1 1 1 1 1 1 1 2 2 2 2 2 3 5 4 4 3 2 1 2 3 3 5 7 7 7 7 7 7 7
3 2 2 2 2 1 2 2 2 2 2 1 1 1 1 0 0 1 1 1 1 2 2 2 2 2 2 5 5 4 3 2 3 3 4 3 5 7 8 8 8 7 8
3 2 1 1 2 1 2 2 2 1 1 1 1 0 1 1 1 1 1 0 1 1 2 2 2 2 2 1 3 5 4 4 3 3 3 3 4 4 7 8 8 8 8
2 2 2 1 1 1 1 1 1 1 1 2 1 0 0 2 2 1 1 1 1 1 1 2 2 2 2 2 2 4 5 5 5 5 4 4 5 6 5 7 8 8 8
2 2 2 2 1 1 1 1 1 1 1 1 2 1 1 1 1 2 1 1 1 1 2 2 2 2 2 1 2 4 5 5 5 6 6 6 6 6 6 6 7 8 8
2 2 2 2 2 1 1 1 2 1 1 1 2 1 1 2 1 2 3 2 2 2 2 2 2 2 2 2 1 3 5 5 6 7 7 7 7 8 8 7 8 8 8
2 2 2 2 2 2 2 2 2 2 2 2 2 2 1 1 1 1 2 3 3 2 2 2 2 2 2 2 2 4 5 5 6 6 7 6 6 8 8 8 8 9 9
2 3 3 2 2 2 3 2 2 2 2 3 3 3 2 2 2 2 2 3 3 3 2 2 3 2 2 1 2 4 4 5 6 7 7 6 6 6 6 7 7 7 7
3 3 3 3 3 3 3 3 2 3 2 3 3 3 3 3 2 2 2 2 3 3 2 3 2 2 2 2 3 4 3 5 6 7 7 6 6 6 6 6 7 7 6
3 3 3 4 4 3 3 3 3 3 3 3 4 4 3 3 3 3 2 3 3 3 4 3 2 2 2 2 4 3 3 5 6 7 6 6 6 6 6 6 6 6 6
4 4 4 4 4 4 4 3 4 3 3 4 3 4 4 3 3 3 3 3 3 4 5 3 3 2 3 4 5 4 4 7 7 7 6 6 6 6 6 6 7 5 6
4 4 5 4 4 4 4 4 4 4 4 4 4 4 5 4 3 3 3 3 3 3 6 5 3 3 3 3 4 3 4 4 4 6 6 6 6 7 7 7 7 6 6
5 5 5 5 5 5 4 5 5 5 5 5 5 5 5 4 5 4 4 4 4 4 5 7 4 3 4 4 4 4 4 4 4 6 7 7 7 7 7 7 7 6 7
5 5 5 5 6 5 5 5 5 6 6 6 6 6 6 5 6 4 5 5 4 4 4 4 4 3 3 3 3 4 4 3 4 5 6 6 7 8 8 7 7 7 7
5 6 6 6 6 6 6 6 6 6 6 6 6 6 6 6 7 6 5 6 4 4 3 3 4 3 3 3 3 3 3 3 3 3 4 5 7 8 8 8 7 7 7
6 6 6 6 6 6 6 6 6 7 7 6 6 6 7 8 9 7 6 5 5 4 4 4 4 4 3 3 4 3 4 3 4 3 4 4 4 4 4 6 7 8 8
5 6 7 7 7 7 8 9 7 6 7 7 7 7 7 8 9 10 10 9 8 6 6 5 4 5 5 4 4 4 4 4 4 2 3 4 3 4 4 4 7 8 9
5 6 7 7 8 9 10 10 10 7 7 7 7 7 6 6 8 7 8 9 9 10 10 7 7 7 6 6 5 6 6 6 6 3 3 5 3 5 4 5 8 9 9
6 6 7 7 8 9 10 11 10 7 7 8 8 8 8 7 7 7 6 7 8 8 9 8 8 8 7 6 7 7 7 5 5 3 3 5 4 5 4 4 7 9 9
6 6 7 7 8 9 10 11 10 6 6 8 8 8 8 8 10 9 7 7 8 8 9 11 11 10 10 10 8 4 4 5 6 4 3 3 3 3 4 4 5 8 9
7 7 7 7 8 8 11 11 10 6 7 6 6 7 10 10 11 10 8 7 8 7 6 6 7 7 7 7 9 8 6 6 5 4 3 3 3 2 4 3 3 3 4
Wind_Direction
37 35 29 27 21 21 26 20 27 26 26 29 31 32 22 8 2 357 342 352 4 18 24 17 185 174 169 170 159 177 172 165 161 152 145 139 129 125 133 134 132 129 128
31 36 35 27 18 17 15 14 8 12 10 20 28 17 11 356 6 354 352 348 358 11 24 21 20 18 238 203 193 198 190 181 177 170 167 161 147 147 143 148 150 144 141
22 24 35 27 7 6 18 20 11 10 10 13 12 6 358 349 3 354 1 6 351 354 10 17 16 8 1 342 278 235 210 199 191 184 181 177 170 166 166 161 165 160 158
22 25 29 18 360 1 15 26 10 5 4 356 346 341 344 347 7 4 16 13 4 358 358 13 16 18 4 354 346 317 243 217 206 198 192 190 188 188 191 185 183 179 176
19 29 24 8 7 14 8 4 8 351 351 341 325 340 351 343 1 29 29 18 15 9 5 8 9 6 2 355 345 341 323 258 227 215 209 202 200 202 204 204 198 196 194
9 27 31 11 12 21 13 5 356 348 338 313 321 342 328 322 26 47 34 15 11 6 12 15 2 352 356 351 338 337 314 272 265 234 224 220 215 214 213 214 209 208 205
8 29 28 18 12 16 359 359 3 351 354 347 16 347 335 300 66 50 359 356 6 357 13 11 358 355 339 345 340 331 323 288 275 259 236 234 228 225 221 220 219 215 212
1 8 33 10 1 4 12 5 18 341 333 350 8 19 316 307 331 324 308 303 330 0 350 344 347 343 332 323 326 332 324 306 288 276 262 246 244 239 230 226 225 223 222
352 353 351 353 350 3 344 318 348 349 310 315 341 163 197 253 300 284 265 283 319 331 324 315 324 323 323 331 331 335 337 322 286 280 271 260 253 246 251 239 232 230 230
348 340 344 339 320 333 306 298 328 303 300 294 315 324 282 245 244 290 294 289 308 300 299 301 293 290 304 312 325 335 335 329 299 287 278 268 258 253 251 254 246 239 235
335 337 328 328 314 294 283 285 302 305 280 278 290 299 309 300 252 247 277 290 294 272 274 271 265 270 278 284 291 312 321 319 307 288 281 272 265 256 254 258 254 248 245
315 317 317 301 302 295 277 264 266 271 275 273 284 276 264 269 266 257 264 276 281 280 280 262 254 256 261 254 289 312 313 312 307 302 293 290 285 273 261 261 264 254 247
304 297 302 291 284 288 285 270 256 266 269 265 260 267 265 266 270 263 255 273 281 284 281 264 249 247 265 254 272 296 299 306 304 303 297 297 304 305 285 273 273 269 256
272 276 274 276 277 273 283 281 254 252 256 258 265 264 268 266 262 257 247 250 274 276 268 263 261 249 253 253 273 283 277 291 294 297 296 294 301 303 302 289 279 272 270
271 269 266 267 273 273 267 279 262 245 244 249 256 261 265 263 260 256 250 234 232 254 262 257 250 247 252 255 268 260 255 282 287 289 288 289 293 292 294 295 293 276 270
265 264 266 264 265 270 264 265 274 250 241 252 256 257 265 267 260 256 245 247 240 239 255 255 253 260 258 272 276 268 263 284 283 280 274 276 280 281 284 285 284 282 277
261 255 257 262 263 263 258 253 265 253 244 252 257 257 265 268 260 253 246 241 243 241 252 265 261 260 249 256 270 260 256 255 262 269 269 272 273 273 273 276 277 273 275
259 255 255 257 260 260 255 251 262 258 245 249 253 256 262 268 263 254 242 244 245 247 249 260 267 257 252 248 251 253 262 263 256 267 268 271 271 272 269 269 272 270 270
258 257 255 254 257 258 257 253 256 259 246 244 247 251 257 260 263 259 250 247 248 257 257 250 260 261 264 252 252 260 259 259 260 259 263 266 267 268 264 265 266 265 265
256 251 254 254 254 255 255 251 256 259 247 246 246 249 251 251 257 256 253 246 249 251 248 245 254 258 263 245 234 253 271 254 257 253 262 266 263 261 260 262 264 265 263
261 251 251 254 254 252 249 247 249 257 252 251 252 251 253 255 260 257 256 247 241 234 233 237 243 249 251 237 239 243 264 268 260 242 248 251 246 245 245 254 259 261 260
266 257 250 250 253 254 257 256 255 257 255 250 253 256 257 256 262 265 266 265 256 241 236 236 244 244 246 240 245 246 256 263 266 224 237 257 235 248 247 236 248 254 257
266 264 256 249 252 255 259 258 258 263 256 248 247 251 258 260 265 259 266 269 263 257 248 243 243 242 243 236 235 243 242 248 260 238 255 267 242 252 245 247 251 254 256
261 261 262 253 254 259 261 259 260 260 259 252 246 245 250 255 256 256 257 259 257 251 247 242 239 239 240 235 227 236 242 261 272 248 232 260 257 259 262 244 251 253 256
262 259 261 258 255 259 261 260 261 254 258 257 253 249 246 250 259 262 258 258 263 263 262 257 252 250 250 248 243 236 235 244 264 258 223 241 258 272 269 255 249 249 255
258 261 263 259 255 257 260 260 257 249 257 258 256 253 252 257 261 257 250 250 257 261 263 264 262 257 249 244 241 229 226 234 256 260 216 222 243 263 283 264 240 237 245